Wainwright, AK

12:49 PM AKST on December 13, 2017 (GMT -0900)
Wainwright

Weather History for PAWI - February, 2013

Change the Weather History Date:

Thursday, February 7, 2013

  Actual Average (PABR) Record (PABR)
Temperature  
Mean Temperature -22 °F -  
Max Temperature -14 °F -10 °F 34 °F (1982)
Min Temperature -29 °F -20 °F -50 °F (1925)
Degree Days  
Heating Degree Days 86    
Moisture  
Dew Point -29 °F    
Average Humidity 72    
Maximum Humidity 77    
Minimum Humidity 62    
Precipitation  
Precipitation 0.00 in - - ()
Sea Level Pressure  
Sea Level Pressure 29.82 in    
Wind  
Wind Speed 5 mph (SW)    
Max Wind Speed 9 mph    
Max Gust Speed -    
Visibility 5 miles    
Events      
Averages and records for this station are not official NWS values.
T = Trace of Precipitation, MM = Missing Value Source: NWS Daily Summary

Daily Weather History Graph

Daily Weather History Graph

Search for Another Location

Airport or City:

Trip Planner

Search our weather history database for the weather conditions in past years. The results will help you decide how hot, cold, wet, or windy it might be!

Date:

Astronomy

Feb. 07, 2013 Rise Set
Actual Time 10:58 AM AKST 4:51 PM AKST
Civil Twilight 9:38 AM AKST 6:11 PM AKST
Nautical Twilight 8:21 AM AKST 7:28 PM AKST
Astronomical Twilight 7:08 AM AKST 8:41 PM AKST
Moon 10:25 AM AKST (2/7) 12:56 PM AKST (2/7)
Length of Visible Light 8h 32m
Length of Day
5h 53m
Waning Crescent, 8% of the Moon is Illuminated
Feb 7
Waning Crescent
Feb 9
New
Feb 17
First Quarter
Feb 25
Full
Mar 4
Last Quarter

Hourly Weather History & Observations

Time (AKST) Temp. Windchill Dew Point Humidity Pressure Visibility Wind Dir Wind Speed Gust Speed Precip Events Conditions
12:02 AM -14.8 °F -33.5 °F -20.2 °F 77% 29.93 in 6.0 mi West 9.2 mph - N/A   Haze
12:05 AM -14.8 °F -33.5 °F -20.2 °F 77% 29.93 in 5.0 mi West 9.2 mph - N/A   Haze
12:33 AM -14.8 °F -32.2 °F -20.2 °F 77% 29.93 in 7.0 mi West 8.1 mph - N/A   Scattered Clouds
12:53 AM -15.0 °F -31.0 °F -20.9 °F 75% 29.93 in 5.0 mi West 6.9 mph - N/A   Haze
12:58 AM -14.8 °F -30.8 °F -20.2 °F 77% 29.93 in 5.0 mi West 6.9 mph - N/A   Haze
1:10 AM -14.8 °F -30.8 °F -20.2 °F 77% 29.92 in 4.0 mi West 6.9 mph - N/A   Haze
1:17 AM -14.8 °F -30.8 °F -20.2 °F 77% 29.92 in 4.0 mi West 6.9 mph - N/A   Haze
1:45 AM -14.8 °F -30.8 °F -20.2 °F 77% 29.92 in 5.0 mi West 6.9 mph - N/A   Haze
1:53 AM -15.0 °F -31.0 °F -20.9 °F 75% 29.92 in 4.0 mi West 6.9 mph - N/A   Haze
3:10 AM -16.6 °F -31.3 °F -22.0 °F 76% 29.90 in 9.0 mi WNW 5.8 mph - N/A   Partly Cloudy
3:53 AM -16.1 °F -33.7 °F -22.0 °F 74% 29.89 in 3.0 mi WNW 8.1 mph - N/A   Haze
3:56 AM -16.6 °F -34.4 °F -22.0 °F 76% 29.89 in 3.0 mi WNW 8.1 mph - N/A   Haze
4:21 AM -16.6 °F -34.4 °F -22.0 °F 76% 29.87 in 4.0 mi WNW 8.1 mph - N/A   Haze
4:28 AM -16.6 °F -32.9 °F -22.0 °F 76% 29.87 in 4.0 mi WNW 6.9 mph - N/A   Haze
4:53 AM -16.1 °F -30.6 °F -22.0 °F 74% 29.87 in 2.5 mi WNW 5.8 mph - N/A   Haze
5:06 AM -16.6 °F -31.3 °F -23.8 °F 70% 29.86 in 3.0 mi WNW 5.8 mph - N/A   Haze
5:51 AM -16.6 °F -29.3 °F -23.8 °F 70% 29.85 in 4.0 mi NW 4.6 mph - N/A   Haze
5:53 AM -17.0 °F -27.2 °F -24.0 °F 70% 29.86 in 4.0 mi NW 3.5 mph - N/A   Haze
6:53 AM -27.0 °F -38.7 °F -33.0 °F 73% 29.85 in 5.0 mi ESE 3.5 mph - N/A   Haze
7:53 AM -27.0 °F -38.7 °F -34.1 °F 69% 29.83 in 6.0 mi SE 3.5 mph - N/A   Haze
8:53 AM -27.9 °F -42.5 °F -35.0 °F 69% 29.83 in 7.0 mi SE 4.6 mph - N/A   Clear
9:53 AM -29.0 °F -41.0 °F -35.0 °F 73% 29.82 in 9.0 mi SE 3.5 mph - N/A   Clear
10:53 AM -29.9 °F -42.0 °F - N/A% 29.80 in 5.0 mi ESE 3.5 mph - N/A   Haze
11:53 AM -29.0 °F -41.0 °F -35.0 °F 73% 29.80 in 9.0 mi SE 3.5 mph - N/A   Clear
12:18 PM -27.4 °F -39.2 °F -34.6 °F 69% 29.79 in 5.0 mi SE 3.5 mph - N/A   Haze
12:30 PM -29.2 °F -41.2 °F -34.6 °F 75% 29.79 in 5.0 mi SE 3.5 mph - N/A   Haze
12:53 PM -27.0 °F -38.7 °F -34.1 °F 69% 29.79 in 5.0 mi SE 3.5 mph - N/A   Haze
1:48 PM -27.4 °F - -34.6 °F 69% 29.77 in 2.5 mi Calm Calm - N/A   Overcast
1:53 PM -27.0 °F -38.7 °F -34.1 °F 69% 29.78 in 4.0 mi SE 3.5 mph - N/A   Haze
1:57 PM -27.4 °F -39.2 °F -32.8 °F 75% 29.78 in 1.5 mi ESE 3.5 mph - N/A   Haze
2:06 PM -27.4 °F - -32.8 °F 75% 29.77 in 2.5 mi Calm Calm - N/A   Haze
2:13 PM -27.4 °F -39.2 °F -34.6 °F 69% 29.77 in 8.0 mi SE 3.5 mph - N/A   Scattered Clouds
3:20 PM -29.2 °F -44.0 °F -34.6 °F 75% 29.76 in 8.0 mi SE 4.6 mph - N/A   Overcast
3:53 PM -27.9 °F - -34.1 °F 73% 29.75 in 4.0 mi Calm Calm - N/A   Haze
4:30 PM -27.4 °F - -34.6 °F 69% 29.75 in 6.0 mi Calm Calm - N/A   Haze
4:53 PM -27.0 °F -38.7 °F -34.1 °F 69% 29.75 in 4.0 mi SE 3.5 mph - N/A   Haze
5:11 PM -29.2 °F - -34.6 °F 75% 29.74 in 8.0 mi Calm Calm - N/A   Scattered Clouds
5:53 PM -27.9 °F - -35.0 °F 69% 29.75 in 9.0 mi Calm Calm - N/A   Overcast
6:01 PM -27.4 °F - -34.6 °F 69% 29.74 in 5.0 mi Calm Calm - N/A   Haze
6:28 PM -27.4 °F - -36.4 °F 62% 29.74 in 9.0 mi Calm Calm - N/A   Scattered Clouds
6:53 PM -29.0 °F - -36.0 °F 69% 29.75 in 10.0 mi Calm Calm - N/A   Overcast
7:53 PM -29.0 °F - -36.0 °F 69% 29.75 in 9.0 mi Calm Calm - N/A   Overcast
8:53 PM -27.0 °F - -33.0 °F 73% 29.75 in 6.0 mi Calm Calm - N/A   Haze
9:53 PM -27.0 °F - -35.0 °F 66% 29.75 in 5.0 mi Calm Calm - N/A   Haze
10:06 PM -25.6 °F - -32.8 °F 69% 29.74 in 3.0 mi Calm Calm - N/A   Overcast
10:20 PM -27.4 °F - -32.8 °F 75% 29.75 in 5.0 mi Calm Calm - N/A   Haze
10:53 PM -27.0 °F - -34.1 °F 69% 29.75 in 3.0 mi Calm Calm - N/A   Haze
11:53 PM -29.0 °F - -35.0 °F 73% 29.75 in 10.0 mi Calm Calm - N/A   Mostly Cloudy